Data for 04/02/2017

Time Sea-Level Adjusted Pressure Absolute Pressure Temperature Relative Humidity Dew Point   
(mb) (inHg) (mb) (inHg) (C) (F) (%) (C) (F)
00:05 1016 30 845 24.95 9 48.1 57 0.9 33.7
00:10 1016 30 845 24.95 8.8 47.9 57 0.8 33.5
00:15 1016 30 845 24.95 8.9 48.1 58 1.1 33.9
00:20 1016 30 845 24.95 8.9 48 58 1 33.9
00:25 1016 30 845 24.95 8.8 47.8 61 1.6 34.9
00:30 1016 30 845 24.95 8.6 47.5 62 1.8 35.2
00:35 1016 30 845 24.95 8.5 47.2 63 1.8 35.2
00:40 1016 30 845 24.95 8.4 47 61 1.4 34.5
00:45 1016 30 845 24.95 8.4 47.2 62 1.7 35.1
00:50 1016 30 845 24.95 8.4 47.1 65 2.3 36.1
00:55 1016 30 845 24.95 8.3 47 62 1.4 34.5
01:00 1016 30 845 24.95 8.3 47 62 1.5 34.7
01:05 1016 30 845 24.95 8.4 47.1 63 1.7 35.1
01:10 1016 30 845 24.95 8.3 47 61 1.2 34.2
01:15 1016 30 845 24.95 8.2 46.8 63 1.6 34.8
01:20 1016 30 845 24.95 8.1 46.5 60 0.9 33.5
01:25 1016 30 845 24.95 7.9 46.3 60 0.8 33.4
01:30 1016 30 845 24.95 7.9 46.1 62 1 33.8
01:35 1016 30 845 24.95 7.8 46.1 62 1 33.7
01:40 1016 30 845 24.95 7.7 45.9 63 1.1 33.9
01:45 1016 30 845 24.95 7.6 45.7 62 0.8 33.4
01:50 1016 30 845 24.95 7.5 45.6 59 0.1 32.2
01:55 1016 30 845 24.95 7.5 45.5 61 0.5 32.9
02:00 1016 30 845 24.95 7.4 45.4 60 0.2 32.4
02:05 1016 30 845 24.95 7.4 45.4 58 -0.2 31.6
02:10 1016 30 845 24.95 7.4 45.2 58 -0.3 31.5
02:15 1016 30 845 24.95 7.4 45.2 58 -0.5 31.2
02:20 1016 30 845 24.95 7.4 45.2 58 -0.4 31.4
02:25 1016 30 845 24.95 7.3 45.1 59 -0.3 31.4
02:30 1016 30 845 24.95 7.2 45 58 -0.6 30.9
02:35 1016 30 845 24.95 7.1 44.8 58 -0.5 31.1
02:40 1016 30 845 24.95 7 44.6 58 -0.7 30.7
02:45 1016 30 845 24.95 6.9 44.5 58 -0.8 30.6
02:50 1016 30 845 24.95 6.9 44.5 58 -0.7 30.8
02:55 1016 30 845 24.95 6.9 44.4 59 -0.6 31
03:00 1016 30 845 24.95 6.8 44.3 59 -0.7 30.8
03:05 1016 30 845 24.95 6.7 44.1 59 -0.8 30.6
03:10 1016 30 845 24.95 6.7 44 60 -0.5 31.1
03:15 1016 30 845 24.95 6.6 44 58 -0.9 30.3
03:20 1016 30 845 24.95 6.6 43.8 58 -1.1 30
03:25 1016 30 845 24.95 6.5 43.8 58 -1.2 29.8
03:30 1016 30 845 24.95 6.5 43.7 59 -1 30.2
03:35 1016 30 845 24.95 6.4 43.6 59 -1 30.2
03:40 1016 30 845 24.95 6.3 43.3 60 -0.9 30.3
03:45 1016 30 845 24.95 6.2 43.1 61 -0.7 30.8
03:50 1016 30 845 24.95 6.1 43 61 -0.8 30.6
03:55 1016 30 845 24.95 6.1 42.9 61 -0.8 30.6
04:00 1016 30 845 24.95 6.1 42.9 62 -0.6 30.9
04:05 1016 30 845 24.95 6.1 42.9 60 -1.1 30
04:10 1016 30 845 24.95 6 42.8 59 -1.3 29.7
04:15 1016 30 845 24.95 6 42.8 59 -1.4 29.4
04:20 1016 30 845 24.95 6 42.7 58 -1.7 29
04:25 1016 30 845 24.95 5.9 42.7 58 -1.7 28.9
04:30 1016 30 846 24.98 5.9 42.5 58 -1.8 28.7
04:35 1016 30 846 24.98 5.8 42.5 57 -2.1 28.3
04:40 1016 30 846 24.98 5.8 42.4 59 -1.5 29.3
04:45 1016 30 846 24.98 5.7 42.2 61 -1.3 29.7
04:50 1016 30 846 24.98 5.6 42.1 61 -1.3 29.6
04:55 1016 30 845 24.95 5.5 42 59 -1.8 28.8
05:00 1016 30 845 24.95 5.5 41.9 58 -2 28.4
05:05 1016 30 845 24.95 5.5 41.8 58 -2.2 28.1
05:10 1016 30 845 24.95 5.4 41.7 58 -2.2 28
05:15 1016 30 845 24.95 5.5 41.8 57 -2.5 27.6
05:20 1016 30 846 24.98 5.5 41.9 56 -2.6 27.3
05:25 1016 30 846 24.98 5.5 41.8 56 -2.6 27.3
05:30 1016 30 846 24.98 5.4 41.7 55 -2.8 27
05:35 1016 30 846 24.98 5.4 41.7 56 -2.8 27
05:40 1016 30 845 24.95 5.4 41.7 55 -2.8 27
05:45 1016 30 846 24.98 5.4 41.7 54 -3.1 26.4
05:50 1016 30 846 24.98 5.4 41.7 54 -3 26.5
05:55 1016 30 846 24.98 5.3 41.6 54 -3.2 26.3
06:00 1016 30 846 24.98 5.3 41.6 54 -3.3 26.1
06:05 1016 30 846 24.98 5.4 41.7 53 -3.5 25.8
06:10 1016 30 846 24.98 5.4 41.8 53 -3.5 25.8
06:15 1016 30 845 24.95 5.4 41.7 54 -3.2 26.2
06:20 1016 30 845 24.95 5.3 41.6 54 -3.3 26.1
06:25 1016 30 846 24.98 5.4 41.8 52 -3.6 25.6
06:30 1016 30 846 24.98 5.5 41.8 53 -3.4 25.9
06:35 1016 30 845 24.95 5.4 41.8 51 -3.9 25
06:40 1016 30 846 24.98 5.5 41.9 52 -3.6 25.6
06:45 1016 30 846 24.98 5.5 41.9 51 -3.8 25.1
06:50 1016 30 846 24.98 5.5 41.9 51 -3.9 25
06:55 1016 30 846 24.98 5.5 41.9 52 -3.7 25.4
07:00 1016 30 846 24.98 5.5 41.8 52 -3.5 25.6
07:05 1016 30 846 24.98 5.4 41.6 53 -3.4 26
07:10 1016 30 846 24.98 5.4 41.7 53 -3.4 25.8
07:15 1016 30 846 24.98 5.4 41.8 53 -3.3 26
07:20 1016 30 846 24.98 5.4 41.7 53 -3.4 25.9
07:25 1016 30 846 24.98 5.5 41.9 54 -3.1 26.3
07:30 1017 30.03 846 24.98 5.5 41.9 54 -3.2 26.3
07:35 1016 30 846 24.98 5.5 42 53 -3.4 26
07:40 1017 30.03 846 24.98 5.5 41.9 54 -3.1 26.4
07:45 1016 30 846 24.98 5.5 41.8 56 -2.7 27.1
07:50 1016 30 846 24.98 5.5 41.8 55 -2.8 27
07:55 1016 30 846 24.98 5.5 41.9 55 -2.7 27.1
08:00 1016 30 846 24.98 5.6 42.1 55 -2.7 27.1
08:05 1016 30 846 24.98 5.8 42.5 54 -2.9 26.9
08:10 1016 30 846 24.98 6 42.7 52 -3.2 26.3
08:15 1016 30 845 24.95 6.1 43 48 -3.9 24.9
08:20 1016 30 845 24.95 6.2 43.2 49 -3.8 25.2
08:25 1016 30 845 24.95 6.3 43.3 50 -3.3 26
08:30 1016 30 845 24.95 6.2 43.1 49 -3.9 25
08:35 1016 30 845 24.95 6.4 43.4 47 -4.1 24.6
08:40 1016 30 845 24.95 6.4 43.6 47 -4 24.8
08:45 1016 30 845 24.95 6.6 43.9 45 -4.4 24
08:50 1016 30 845 24.95 6.8 44.3 45 -4.4 24.2
08:55 1016 30 845 24.95 7 44.7 45 -4.1 24.7
09:00 1016 30 845 24.95 7 44.6 45 -4 24.7
09:05 1016 30 845 24.95 6.8 44.2 50 -2.9 26.7
09:10 1016 30 845 24.95 6.6 43.9 49 -3.3 26.1
09:15 1016 30 845 24.95 6.7 44 47 -3.8 25.2
09:20 1016 30 845 24.95 6.5 43.7 47 -3.9 24.9
09:25 1016 30 845 24.95 6.9 44.4 46 -3.8 25.1
09:30 1016 30 845 24.95 7.4 45.2 44 -4.2 24.4
09:35 1015 29.97 845 24.95 7.4 45.3 44 -4.1 24.6
09:40 1015 29.97 845 24.95 7.4 45.3 44 -4.1 24.7
09:45 1015 29.97 845 24.95 7.6 45.6 46 -3.4 25.8
09:50 1015 29.97 845 24.95 7.3 45.1 46 -3.5 25.7
09:55 1015 29.97 845 24.95 7.5 45.5 47 -3.2 26.2
10:00 1015 29.97 845 24.95 7.6 45.7 48 -2.8 27
10:05 1015 29.97 844 24.92 7.6 45.7 48 -2.8 27
10:10 1015 29.97 844 24.92 8 46.4 47 -2.6 27.3
10:15 1015 29.97 844 24.92 8.3 46.9 45 -3 26.5
10:20 1015 29.97 844 24.92 8.4 47 44 -3.1 26.4
10:25 1015 29.97 844 24.92 8.2 46.7 45 -3.1 26.4
10:30 1015 29.97 844 24.92 8.3 46.9 42 -3.7 25.3
10:35 1015 29.97 844 24.92 8.3 46.9 43 -3.7 25.4
10:40 1015 29.97 844 24.92 8.4 47 44 -3.3 26.1
10:45 1015 29.97 844 24.92 8.6 47.4 42 -3.5 25.7
10:50 1015 29.97 844 24.92 8.6 47.4 44 -3 26.7
10:55 1015 29.97 844 24.92 8.6 47.4 43 -3.3 26
11:00 1015 29.97 844 24.92 8.8 47.8 41 -3.7 25.4
11:05 1015 29.97 844 24.92 9 48.1 41 -3.4 25.8
11:10 1015 29.97 844 24.92 9.3 48.8 40 -3.5 25.6
11:15 1015 29.97 844 24.92 10 49.9 38 -3.7 25.3
11:20 1015 29.97 844 24.92 10 49.9 37 -4 24.9
11:25 1015 29.97 844 24.92 9.9 49.7 38 -3.9 25
11:30 1015 29.97 844 24.92 9.4 48.9 40 -3.3 26
11:35 1015 29.97 844 24.92 9.8 49.7 36 -4.3 24.2
11:40 1015 29.97 844 24.92 10 50 34 -5.1 22.8
11:45 1014 29.94 844 24.92 9.8 49.6 36 -4.7 23.5
11:50 1014 29.94 843 24.89 10.1 50.1 35 -4.7 23.5
11:55 1014 29.94 843 24.89 9.9 49.8 34 -5.1 22.9
12:00 1014 29.94 843 24.89 10.4 50.7 34 -4.9 23.2
12:05 1014 29.94 843 24.89 10.4 50.7 33 -5.1 22.8
12:10 1014 29.94 843 24.89 10.3 50.5 33 -5.1 22.8
12:15 1014 29.94 843 24.89 9.7 49.5 34 -5.5 22.1
12:20 1014 29.94 843 24.89 10.3 50.5 32 -5.7 21.7
12:25 1014 29.94 843 24.89 10.8 51.5 31 -5.8 21.6
12:30 1014 29.94 843 24.89 11 51.9 30 -5.9 21.3
12:35 1014 29.94 843 24.89 10.3 50.6 31 -6 21.2
12:40 1013 29.91 843 24.89 10.1 50.2 30 -6.5 20.3
12:45 1013 29.91 843 24.89 11.2 52.2 29 -6.1 20.9
12:50 1013 29.91 843 24.89 10.9 51.5 30 -5.9 21.5
12:55 1013 29.91 843 24.89 11.3 52.3 28 -6.3 20.6
13:00 1013 29.91 842 24.86 12.2 53.9 27 -6.2 20.8
13:05 1013 29.91 842 24.86 12.9 55.3 27 -5.6 22
13:10 1013 29.91 842 24.86 12.4 54.3 27 -5.9 21.3
13:15 1013 29.91 842 24.86 12.2 54 28 -5.8 21.6
13:20 1013 29.91 842 24.86 11.1 52 30 -5.7 21.7
13:25 1013 29.91 842 24.86 10.6 51.1 30 -6.4 20.5
13:30 1013 29.91 842 24.86 10.7 51.3 30 -6.1 21.1
13:35 1013 29.91 842 24.86 10.1 50.2 31 -6.4 20.6
13:40 1013 29.91 842 24.86 10.5 50.9 31 -5.7 21.7
13:45 1013 29.91 842 24.86 11 51.7 29 -6.3 20.7
13:50 1012 29.88 842 24.86 12.2 53.9 28 -5.5 22
13:55 1012 29.88 842 24.86 11 51.8 31 -5.4 22.3
14:00 1012 29.88 842 24.86 10.7 51.3 30 -6.1 21
14:05 1012 29.88 841 24.83 10.8 51.5 30 -6 21.1
14:10 1012 29.88 841 24.83 10.4 50.7 32 -5.6 21.8
14:15 1012 29.88 841 24.83 9.7 49.4 35 -4.9 23.1
14:20 1012 29.88 841 24.83 8 46.3 37 -5.9 21.4
14:25 1012 29.88 841 24.83 7.4 45.3 43 -4.3 24.2
14:30 1012 29.88 842 24.86 6.6 43.9 46 -4.3 24.2
14:35 1012 29.88 842 24.86 6.6 43.8 46 -4.3 24.3
14:40 1012 29.88 842 24.86 6.5 43.7 47 -4.1 24.6
14:45 1013 29.91 842 24.86 6.7 44.1 48 -3.4 25.8
14:50 1012 29.88 842 24.86 7 44.6 46 -3.7 25.3
14:55 1012 29.88 841 24.83 6.8 44.3 49 -3.2 26.2
15:00 1012 29.88 841 24.83 6.7 44.1 47 -3.7 25.3
15:05 1012 29.88 841 24.83 7 44.6 43 -4.6 23.7
15:10 1012 29.88 841 24.83 7 44.6 43 -4.7 23.5
15:15 1012 29.88 841 24.83 6.9 44.5 46 -4 24.8
15:20 1012 29.88 842 24.86 7.2 44.9 43 -4.5 24
15:25 1012 29.88 842 24.86 6.9 44.5 49 -3 26.6
15:30 1012 29.88 842 24.86 6.7 44.1 48 -3.5 25.7
15:35 1012 29.88 842 24.86 6.4 43.6 48 -3.8 25.2
15:40 1012 29.88 842 24.86 6.3 43.4 47 -4.1 24.6
15:45 1012 29.88 841 24.83 6.3 43.4 48 -3.8 25.2
15:50 1012 29.88 841 24.83 6.7 44.1 47 -3.7 25.3
15:55 1012 29.88 841 24.83 7 44.6 48 -3.2 26.2
16:00 1012 29.88 841 24.83 6.5 43.8 50 -3.2 26.2
16:05 1012 29.88 841 24.83 6.5 43.6 51 -2.8 26.9
16:10 1012 29.88 841 24.83 6.6 43.8 50 -3.2 26.3
16:15 1012 29.88 841 24.83 6.6 44 53 -2.3 27.9
16:20 1012 29.88 841 24.83 6.6 43.9 42 -5.3 22.5
16:25 1012 29.88 841 24.83 7.1 44.8 46 -3.8 25.2
16:30 1012 29.88 841 24.83 7 44.6 47 -3.5 25.7
16:35 1012 29.88 841 24.83 7 44.7 46 -3.9 25
16:40 1012 29.88 841 24.83 7.1 44.7 42 -5 23.1
16:45 1012 29.88 841 24.83 7.2 45 43 -4.4 24.1
16:50 1012 29.88 842 24.86 7.4 45.3 48 -3 26.6
16:55 1012 29.88 842 24.86 6.7 44.1 49 -3.2 26.2
17:00 1013 29.91 842 24.86 6.2 43.2 50 -3.5 25.8
17:05 1013 29.91 842 24.86 5.8 42.5 51 -3.4 25.8
17:10 1013 29.91 842 24.86 5.4 41.7 53 -3.3 26
17:15 1013 29.91 842 24.86 5.1 41.2 51 -4.2 24.5
17:20 1013 29.91 842 24.86 5.2 41.4 52 -3.7 25.3
17:25 1013 29.91 842 24.86 5.6 42.1 46 -5.2 22.7
17:30 1013 29.91 842 24.86 6 42.9 47 -4.3 24.3
17:35 1013 29.91 842 24.86 5.9 42.6 45 -5.1 22.8
17:40 1013 29.91 842 24.86 6 42.9 42 -5.8 21.6
17:45 1013 29.91 842 24.86 6.1 43 42 -5.7 21.7
17:50 1013 29.91 842 24.86 6 42.9 41 -6.2 20.8
17:55 1013 29.91 842 24.86 6.2 43.1 40 -6.6 20.2
18:00 1013 29.91 842 24.86 6.2 43.1 41 -6.1 21
18:05 1013 29.91 842 24.86 6.1 42.9 43 -5.5 22
18:10 1013 29.91 842 24.86 6 42.7 44 -5.4 22.3
18:15 1013 29.91 842 24.86 5.6 42 49 -4.4 24
18:20 1013 29.91 842 24.86 5.3 41.5 51 -4.1 24.7
18:25 1013 29.91 842 24.86 5 41 55 -3.4 25.9
18:30 1013 29.91 842 24.86 4.9 40.8 56 -3 26.5
18:35 1013 29.91 842 24.86 4.8 40.6 57 -2.9 26.7
18:40 1013 29.91 842 24.86 4.7 40.4 58 -2.9 26.8
18:45 1013 29.91 842 24.86 4.7 40.5 57 -3 26.6
18:50 1013 29.91 842 24.86 4.8 40.6 56 -3.2 26.3
18:55 1013 29.91 842 24.86 4.7 40.4 57 -3.1 26.5
19:00 1013 29.91 842 24.86 4.6 40.3 61 -2.3 27.9
19:05 1013 29.91 842 24.86 4.5 40 57 -3.2 26.2
19:10 1013 29.91 843 24.89 4.7 40.5 57 -3 26.5
19:15 1013 29.91 843 24.89 5.1 41.2 50 -4.5 23.9
19:20 1014 29.94 843 24.89 5.2 41.4 49 -4.6 23.8
19:25 1014 29.94 843 24.89 4.8 40.7 46 -5.8 21.6
19:30 1014 29.94 843 24.89 4.2 39.6 51 -5.1 22.8
19:35 1014 29.94 843 24.89 3.7 38.6 52 -5.3 22.4
19:40 1014 29.94 843 24.89 3.7 38.7 51 -5.6 21.9
19:45 1014 29.94 843 24.89 3.8 38.8 50 -5.7 21.7
19:50 1014 29.94 843 24.89 3.8 38.8 50 -5.6 21.9
19:55 1014 29.94 843 24.89 3.8 38.9 51 -5.5 22.1
20:00 1014 29.94 844 24.92 3.5 38.3 54 -4.8 23.3
20:05 1015 29.97 844 24.92 3.3 38 57 -4.4 24.1
20:10 1015 29.97 844 24.92 3 37.4 58 -4.5 23.9
20:15 1015 29.97 844 24.92 3.2 37.7 54 -5.3 22.5
20:20 1015 29.97 844 24.92 3.5 38.3 53 -5.2 22.7
20:25 1015 29.97 844 24.92 3.6 38.5 46 -7 19.3
20:30 1015 29.97 844 24.92 3.7 38.7 46 -6.9 19.6
20:35 1015 29.97 844 24.92 3.7 38.6 47 -6.7 20
20:40 1015 29.97 845 24.95 3.6 38.5 47 -6.6 20.1
20:45 1015 29.97 845 24.95 3.5 38.3 48 -6.5 20.4
20:50 1016 30 845 24.95 3.4 38.2 48 -6.6 20.1
20:55 1016 30 845 24.95 3.3 37.9 46 -7.3 18.9
21:00 1016 30 845 24.95 3.3 38 44 -7.8 17.9
21:05 1016 30 845 24.95 3.3 38 51 -6 21.3
21:10 1016 30 845 24.95 2.7 36.9 59 -4.6 23.7
21:15 1016 30 845 24.95 2.1 35.7 64 -4.1 24.6
21:20 1016 30 845 24.95 1.4 34.6 69 -3.6 25.5
21:25 1016 30 845 24.95 1 33.9 71 -3.6 25.4
21:30 1016 30 845 24.95 1 33.8 70 -3.8 25.1
21:35 1016 30 845 24.95 1.2 34.2 69 -3.9 24.9
21:40 1016 30 845 24.95 1.2 34.2 69 -3.9 25
21:45 1016 30 845 24.95 1.4 34.5 67 -4.1 24.5
21:50 1016 30 845 24.95 1.6 35 66 -4.1 24.6
21:55 1016 30 845 24.95 1.8 35.3 62 -4.6 23.8
22:00 1016 30 845 24.95 1.8 35.2 64 -4.2 24.4
22:05 1016 30 845 24.95 1.7 35.1 62 -4.9 23.2
22:10 1016 30 845 24.95 1.9 35.4 59 -5.4 22.3
22:15 1016 30 845 24.95 2 35.6 56 -6 21.3
22:20 1016 30 845 24.95 2 35.6 50 -7.3 18.8
22:25 1016 30 845 24.95 2 35.6 50 -7.4 18.7
22:30 1016 30 845 24.95 1.9 35.4 51 -7.2 19
22:35 1016 30 845 24.95 1.8 35.3 51 -7.1 19.2
22:40 1016 30 845 24.95 1.8 35.3 52 -7 19.3
22:45 1016 30 845 24.95 1.9 35.4 52 -7.1 19.3
22:50 1016 30 845 24.95 1.9 35.4 52 -6.9 19.5
22:55 1016 30 845 24.95 1.8 35.3 52 -7.1 19.3
23:00 1016 30 845 24.95 1.8 35.2 49 -7.9 17.8
23:05 1016 30 845 24.95 1.7 35.1 47 -8.5 16.7
23:10 1016 30 845 24.95 1.7 35.1 47 -8.4 16.8
23:15 1016 30 845 24.95 1.7 35 47 -8.5 16.7
23:20 1016 30 846 24.98 1.6 34.9 47 -8.5 16.8
23:25 1016 30 846 24.98 1.5 34.8 46 -8.8 16.2
23:30 1016 30 846 24.98 1.5 34.7 44 -9.4 15.1
23:35 1016 30 846 24.98 1.4 34.5 42 -10 14
23:40 1016 30 846 24.98 1.3 34.4 43 -10 14.1
23:45 1017 30.03 846 24.98 1.3 34.3 43 -9.9 14.1
23:50 1016 30 846 24.98 1.2 34.1 44 -9.9 14.2
23:55 1017 30.03 846 24.98 1.2 34.1 44 -9.9 14.2
24:00 1016 30 846 24.98 1.1 34 44 -9.9 14.1